Weather in Uglegorsk

Russia / Amur Oblast     51°45′44″N   128°07′19″E
temp.,
°C
wind,
m/s
gust,
m/s
humid.,
%
clouds,
%
prec.,
mm/h
press.,
hPa
HPBL,
m
2 july, sat
sat200:00+19s22810 0.0 100827
03:00+18s22844 0.0 100723
06:00+19sse248146 0.0 1007112
09:00+25sse345514 0.0 1006621
12:00+29sse45505 0.0 10051438
15:00+29sse454877 0.0 10031698
18:00+25s376583 0.0 1003272
21:00+23s2576100 0.1 1003121
3 july, sun
sun300:00+20sse249041 0.3 100385
03:00+18se239743 1.6 100358
06:00+19se2597100 0.2 1003153
09:00+25sse34705 0.2 1002585
12:00+27sse33636 2.8 1002951
15:00+30se324527 2.8 10002056
18:00+29sse2253100 0.0 999893
21:00+21wsw22929 0.6 100141
4 july, mon
mon400:00+19wnw11956 0.9 100112
03:00+18ene22942 0.9 100119
06:00+20s11933 0.0 100259
09:00+25se22671 0.0 1002539
12:00+29sse32500 0.0 10011488
15:00+31sse224520 0.0 10012044
18:00+28e34560 0.0 1000721
21:00+23ese23780 0.0 100138
5 july, tue
tue500:00+21ese11930 1.9 100211
03:00+20se24960 1.9 100268
06:00+20se26951 0.0 1003181
09:00+26se45720 0.0 1003625
12:00+29sse456225 0.3 10021336
15:00+29sse34725 2.8 1002854
18:00+27se467816 2.3 1002440
21:00+23sse310925 2.9 1002286
6 july, wed
wed600:00+22sse31097100 0.0 1003272
03:00+21sse399710 0.0 1004290
06:00+21se4109323 0.0 1003379
09:00+26se587294 0.0 1003771
12:00+27sse686799 0.1 10021297
15:00+28s5773100 0.6 10011099
18:00+27sse698168 0.6 1000804
21:00+24sse51293100 0.7 1000595